SCP
0 0 0 0 0 -0 0 -0 0 -0 -0 0 0 -0 0 0 -0 0 0 0 0 0 -0 -0 0 0 0 0 0 0 0 0 0 0 0 0 0 0 0 0 0 0 0 -0
0 0 0 0 0 0 -0 -0 0 -0 -0 0 -0 -0 -0 -0 -0 0 0 0 0 0 0 0 0 0 0 0 0 0 0 0 0 0 0 0 0 0 0 0 0 0 0 0
0 0 0 0 0 0 -0 -0 0 -0 0 -0 -0 0 0 0 0 0 0 0 0 0 0 0 0 0 0 0 0 0 0 0 0 0 0 0 0 0 0 0 0 0 0 0
0 0 0 0 0 0 -0 -0 0 -0 0 0 0 -0 -0 0 0 0 0 0 -0 0 0 0 0 0 0 0 0 0 0 0 0 0 0 0 0 0 0 0 0 0 0 -0
0 0 0 0 0 0 -0 0 0 0 -0 -0 0 0 0 0 0 0 0 0 0 -0 -0 0 0 0 0 0 0 0 0 0 0 0 0 0 0 0 0 0 0 0 0 0
0 0 0 0 0 0 0 0 0 0 0 0 0 0 0 0 0 0 0 0 0 0 0 0 0 0 0 0 0 0 0 0 0 0 0 0 0 0 0 -0 0 0 0 0
0 0 0 0 0 0 0 0 0 0 0 0 0 0 0 0 0 0 0 0 0 0 0 0 0 0 0 0 0 0 0 0 0 0 0 0 0 0 0 0 -0 -0 -0 -0
0 0 0 0 0 0 0 0 0 0 0 -0 0 0 0 0 0 0 0 0 0 0 0 0 0 0 0 0 0 0 0 0 0 0 0 0 0 0 0 0 0 0 0 -0
-0 0 0 0 0 0 0 0 0 0 0 -0 0 0 0 0 0 0 0 0 0 0 0 0 0 0 0 0 0 0 0 0 0 0 0 0 0 0 0 0 0 0 0 0
0 0 0 0 0 0 0 0 0 0 0 0 0 0 0 0 0 0 0 0 0 0 0 0 0 0 0 0 0 0 0 0 0 0 0 0 0 0 0 0 0 0 0 0
-0 0 0 0 0 0 0 0 0 0 0 0 0 0 0 0 0 0 0 0 0 0 0 0 0 0 0 0 0 0 0 0 0 0 0 0 0 0 0 0 0 0 0 0
0 0 0 0 0 0 0 0 0 0 0 0 0 0 0 0 0 0 0 0 0 0 0 0 0 0 0 0 0 0 0 0 0 0 0 0 0 0 0 0 0 0 0 0
-0 0 0 0 0 0 0 0 0 0 0 0 0 0 0 0 0 0 0 0 0 0 0 0 0 0 0 0 0 0 0 0 0 0 0 0 0 0 0 0 0 0 0 0
-0 0 0 0 0 0 0 0 0 0 0 0 0 0 0 0 0 0 0 0 0 0 0 0 0 0 0 0 0 0 0 0 0 0 0 0 0 0 0 0 0 0 0 0
0 0 0 0 0 0 0 0 0 0 0 0 0 0 0 0 0 0 0 0 0 0 0 0 0 0 0 0 0 0 0 0 0 0 0 0 0 0 0 0 0 0 0 0
0 0 0 0 0 0 0 0 0 0 0 0 0 0 0 0 0 0 0 0 0 0 0 0 0 0 0 0 0 0 0 0 0 0 0 0 0 0 0 0 0 0 0 0
0 0 0 0 0 0 0 0 0 0 0 0 0 0 0 0 0 0 0 0 0 0 0 0 0 0 0 -0 -0 0 -0 0 0 0 -0 0 0 0 0 0 0 0 0 0
0 0 0 0 0 0 0 0 -0 0 0 0 0 0 0 0 0 0 0 0 0 0 0 0 0 0 -0 -0 -0 0 0 0 0 -0 -0 -0 0 0 0 0 -0 0 0 0
0 0 0 0 0 0 0 0 0 0 0 0 0 0 0 0 0 0 0 0 0 0 0 0 0 0 0 0 0 -0 -0 -0 -0 -0 -0 -0 -0 -0 -0 -0 -0 0 0 0
0 0 0 0 0 0 0 0 0 0 0 0 0 0 0 0 0 0 0 0 0 0 0 0 0 0 0 -0 -0 -0 -0 -0 -0 -0 0 0 0 0 0 0 0 -0 -0 0
0 0 0 0 0 0 0 0 0 0 0 0 0 0 0 0 0 0 0 0 0 0 0 0 0 0 0 -0 -0 -0 -0 -0 -0 -0 -0 -0 0 0 0 0 0 0 0 0
0 0 0 0 0 0 0 0 0 0 0 0 0 0 0 0 0 0 0 0 0 0 0 0 0 0 0 0 0 -0 -0 -0 0 0 0 0 0 0 0 0 0 0 0 0
0 0 0 0 0 0 0 0 0 0 0 0 0 0 0 0 0 0 0 0 0 0 0 0 0 0 -0 0 0 0 0 0 0 0 0 0 0 0 0 0 0 0 0 0
0 0 0 0 0 0 0 0 0 0 0 0 0 0 0 0 0 0 0 0 0 0 0 0 0 -0 -0 0 0 0 0 0 -0 -0 0 0 0 0 0 0 0 0 0 0
0 0 0 0 0 0 0 0 0 0 0 0 0 0 0 0 0 0 0 0 0 0 0 0 0 0 0 0 0 0 0 0 0 0 0 0 0 0 0 0 0 0 0 0
0 0 0 0 0 0 0 0 0 0 0 0 0 0 0 0 0 0 0 0 0 0 -0 -0 0 0 0 0 0 0 0 0 0 0 0 0 0 0 0 0 0 0 0 0
0 0 0 0 0 0 0 0 0 0 0 0 0 0 0 0 0 0 0 0 0 0 0 0 0 0 0 0 0 0 0 0 0 0 0 0 0 0 0 0 0 0 0 0
Wind_Speed_500mb
42 44 45 47 48 36 17 8 4 14 24 4 3 3 10 6 9 6 5 6 4 1 3 4 8 6 5 18 7 7 8 6 0 5 11 2 9 5 6 10 7 2 4 9
42 42 43 41 44 40 33 19 6 5 14 3 5 12 12 11 7 1 3 8 5 5 4 5 3 6 15 16 11 5 3 7 6 15 15 14 14 11 6 10 7 1 5 8
42 41 40 38 36 33 29 9 5 2 7 5 7 4 14 6 4 7 15 5 8 9 16 11 5 11 8 11 4 9 11 6 8 9 10 5 12 12 10 8 8 4 5 15
41 40 39 37 31 26 20 5 4 2 5 6 9 6 8 6 6 6 8 10 10 7 6 10 9 9 14 12 23 12 9 8 3 3 12 20 12 8 16 13 4 6 3 5
41 41 40 34 30 23 12 5 7 8 9 14 10 7 5 9 6 7 2 14 8 13 9 6 3 7 3 3 11 9 9 5 3 7 9 21 18 13 12 9 9 6 8 7
40 41 42 36 27 18 7 7 8 7 6 4 2 5 11 9 10 6 14 23 11 9 6 10 1 8 10 5 5 3 6 6 5 5 2 7 10 10 5 7 4 3 7 2
41 42 40 37 28 16 14 13 9 4 8 4 5 7 13 7 8 14 7 15 12 11 3 10 30 26 15 17 21 6 7 7 5 5 7 1 8 2 5 10 4 8 9 5
42 42 39 35 27 20 17 16 8 5 6 9 7 9 8 5 3 3 12 9 8 11 8 8 9 9 5 11 10 15 6 8 6 6 4 8 4 5 3 6 6 1 4 8
43 41 36 31 27 22 19 17 19 10 4 12 3 3 6 4 2 7 4 16 9 7 9 7 5 6 5 3 11 5 8 13 8 4 7 11 9 3 4 6 8 7 6 3
46 44 33 25 24 21 19 14 19 16 10 17 4 6 5 7 5 6 3 11 6 5 5 6 4 5 2 3 4 4 7 7 7 2 4 10 8 5 7 8 11 5 8 15
48 39 32 23 22 21 20 13 24 26 10 30 25 23 21 16 7 8 12 9 4 8 7 5 6 5 8 1 5 5 7 8 3 4 6 5 8 7 9 9 3 5 7 6
37 39 30 21 21 21 22 13 21 23 19 18 22 31 35 33 19 8 9 8 8 11 8 1 6 4 3 6 4 3 0 11 9 11 10 7 3 4 11 12 16 10 8 6
36 37 36 22 22 23 24 23 27 15 18 38 40 37 8 11 10 15 9 5 9 9 8 15 5 4 8 7 9 6 2 8 7 6 6 9 14 17 18 15 15 14 9 7
35 35 37 28 22 26 28 24 23 18 8 7 13 6 9 9 17 18 11 22 19 16 10 7 5 4 13 7 6 7 8 13 11 2 8 6 18 22 25 26 11 8 8 7
37 37 35 29 22 25 26 24 28 22 8 6 17 17 3 22 26 23 23 17 17 13 6 5 6 7 7 3 4 3 12 13 9 11 31 27 38 27 27 27 21 14 8 7
38 39 30 23 20 21 14 8 26 30 20 6 7 7 8 17 31 21 18 20 15 8 7 7 6 6 4 6 5 10 16 21 24 12 41 39 31 29 28 28 27 20 13 9
37 33 20 16 17 27 22 7 17 37 23 6 10 12 7 17 37 26 24 17 11 9 8 7 9 7 6 6 7 15 12 14 16 20 44 25 39 33 26 15 19 22 17 12
29 17 10 8 14 23 21 13 25 31 19 7 3 8 6 22 12 11 14 9 9 5 5 8 7 10 4 2 18 21 20 23 26 30 41 38 38 32 29 25 26 26 17 11
9 3 12 15 12 13 13 15 11 16 15 6 6 6 7 14 10 12 11 8 2 3 3 7 12 2 6 16 23 33 35 36 40 37 29 32 30 30 32 36 32 27 23 20
2 1 3 2 8 12 16 14 10 13 16 11 8 6 4 10 9 5 10 5 5 4 8 12 5 8 38 35 35 33 40 38 40 42 35 30 31 35 36 28 26 27 24 20
5 4 2 2 14 13 9 8 8 11 5 14 18 17 5 7 6 7 5 6 3 4 9 9 4 8 18 41 45 43 39 38 41 44 36 37 33 35 35 30 27 25 24 23
6 6 5 8 8 7 5 6 2 7 11 12 20 36 17 7 5 10 4 2 2 8 5 5 5 9 26 21 24 47 45 39 43 42 35 38 41 37 34 31 32 33 27 23
5 3 2 4 6 2 9 11 6 5 8 15 20 6 22 9 7 12 5 3 7 2 3 7 10 18 15 18 19 42 43 39 42 37 32 34 34 31 28 27 28 28 28 30
5 5 4 5 6 8 8 6 1 7 11 17 22 19 10 10 7 7 7 7 5 5 4 11 7 27 28 27 32 42 47 49 47 43 40 38 33 27 23 23 24 28 29 25
8 7 7 11 19 15 8 16 16 10 12 9 8 12 10 4 8 7 8 6 9 11 10 9 24 33 26 39 43 44 43 49 48 45 45 41 35 33 26 21 23 25 23 20
8 10 7 17 9 16 17 16 13 9 11 2 5 6 8 9 9 10 15 13 13 8 9 21 17 19 32 45 48 43 42 45 45 45 45 43 40 38 27 21 27 27 27 23
7 12 28 32 23 17 17 12 11 14 8 1 1 4 15 0 8 9 9 12 8 16 18 19 17 16 24 47 49 43 40 45 45 44 45 47 45 41 34 35 37 35 31 24
Wind_Direction_500mb
339 340 342 345 345 355 353 352 19 42 153 100 31 192 196 252 307 72 49 109 114 124 4 17 44 355 228 341 33 5 343 118 332 185 302 119 126 98 148 123 219 177 204 275
338 339 339 344 346 353 2 341 290 248 224 164 287 295 279 232 219 359 83 19 39 50 50 90 358 347 333 43 44 340 323 26 356 358 349 355 52 345 50 94 79 158 156 290
334 336 336 340 341 346 347 335 360 334 187 201 146 347 272 232 155 90 82 47 81 59 28 10 74 3 350 358 55 34 91 41 120 171 235 205 62 354 19 107 82 200 266 338
327 331 332 333 334 339 338 299 279 346 301 318 330 162 269 219 127 69 73 25 77 115 67 21 13 355 349 350 8 31 83 87 53 134 91 82 89 66 33 63 58 94 322 61
323 325 327 329 328 327 316 288 339 348 301 294 341 331 315 199 150 132 88 123 123 105 119 147 285 5 2 272 337 44 5 143 111 50 39 91 71 20 62 53 26 80 104 28
320 322 322 323 322 317 287 258 277 282 273 301 61 257 265 239 127 26 154 152 114 98 167 192 299 170 97 111 150 84 70 109 79 214 224 243 28 347 42 95 14 268 70 254
319 320 319 317 314 296 265 264 279 248 262 234 216 293 320 220 235 143 158 140 121 177 166 110 107 94 62 56 49 67 125 93 78 205 3 149 236 359 31 94 55 103 118 154
320 318 313 309 306 291 257 246 240 240 261 251 272 304 325 323 326 85 162 156 120 175 173 64 52 350 24 355 13 12 19 114 80 119 83 297 314 234 142 97 290 295 137 194
319 317 307 302 300 288 260 241 232 225 259 231 309 294 309 278 210 342 113 133 124 120 76 71 117 193 196 326 343 93 48 68 112 109 139 192 240 204 112 136 291 262 322 156
316 317 304 296 292 282 262 237 227 206 247 270 301 238 259 287 171 167 224 158 151 112 70 80 141 229 188 180 169 347 6 9 101 89 147 283 262 171 128 118 236 319 268 328
313 315 307 287 279 271 260 223 214 219 253 266 266 269 281 310 216 151 166 93 5 53 75 126 201 157 220 107 211 169 171 129 169 90 68 265 166 109 159 209 26 351 14 1
322 323 312 286 265 258 256 215 213 207 242 268 266 261 255 261 276 226 141 153 147 158 94 141 122 143 121 167 239 37 233 178 175 161 213 256 192 220 125 112 91 66 32 34
321 319 319 291 257 248 248 222 197 232 260 284 271 256 188 226 201 184 135 137 149 153 141 151 158 135 137 161 236 174 230 161 113 91 235 225 169 155 151 136 104 81 43 349
317 314 313 297 260 243 243 239 203 208 226 270 269 251 247 174 179 199 188 158 138 147 152 119 136 158 186 201 189 157 189 141 144 272 286 241 202 176 163 157 136 111 87 42
314 311 306 293 261 237 240 238 206 197 225 278 294 291 42 190 180 160 149 153 168 175 148 95 218 179 135 48 82 274 184 172 152 210 199 188 192 188 178 177 172 166 135 123
314 309 296 281 243 220 221 227 213 201 203 291 319 313 217 156 171 176 163 158 169 193 182 191 193 155 138 106 189 260 253 230 227 210 199 202 184 168 182 185 182 165 156 139
315 309 290 270 226 197 186 186 181 185 190 245 299 305 194 171 168 159 157 171 178 192 184 194 165 152 153 106 182 218 200 193 210 207 180 163 180 191 189 206 175 173 172 192
317 306 275 229 198 194 206 127 148 165 178 232 240 269 317 167 152 136 169 177 183 200 186 153 161 136 82 237 237 195 173 171 169 178 187 200 195 195 205 202 187 187 200 207
337 95 125 122 154 165 173 185 205 214 221 267 195 182 221 168 146 148 154 163 59 270 164 222 146 8 206 223 203 198 203 198 195 184 191 186 197 199 203 197 197 202 209 219
237 128 319 189 155 148 147 163 171 186 211 235 232 231 239 171 160 103 125 114 182 160 245 137 143 243 235 226 218 228 212 207 200 183 179 181 183 183 182 195 211 223 227 231
225 287 298 59 149 147 183 195 183 190 229 213 229 217 167 165 127 166 141 176 138 125 258 144 258 273 241 250 235 220 209 208 203 204 211 210 212 191 193 199 207 215 223 229
218 286 309 147 190 194 180 203 206 182 212 204 193 214 207 139 124 95 43 156 61 218 151 103 266 255 240 220 219 203 198 201 200 205 212 211 210 209 212 224 228 234 229 219
230 235 303 332 181 65 201 196 235 212 219 190 171 168 169 127 95 71 76 95 222 94 108 221 225 235 225 198 210 189 191 198 201 208 209 200 195 200 215 231 231 225 210 202
218 182 302 216 227 245 201 183 238 318 322 328 205 155 147 132 89 140 119 230 46 280 231 231 235 234 219 196 188 187 193 199 204 205 201 204 212 219 231 238 240 224 217 217
209 186 231 215 241 268 261 311 309 313 327 327 143 174 151 131 118 189 129 181 217 207 223 226 238 233 218 196 191 197 203 204 207 212 213 213 218 224 227 237 222 208 214 213
228 226 249 253 280 281 269 275 272 269 321 190 194 135 143 211 176 155 201 179 195 220 218 252 267 236 223 205 198 200 205 213 220 220 221 224 226 228 233 226 202 206 212 200
225 242 239 255 275 268 268 271 259 322 302 313 72 194 214 166 187 208 172 179 203 219 226 267 266 251 235 204 200 202 209 221 226 227 227 232 236 226 218 214 209 208 213 218
Wind_Speed_850mb
42 44 45 47 48 36 17 8 4 14 24 4 3 3 10 6 9 6 5 6 4 1 3 4 8 6 5 18 7 7 8 6 0 5 11 2 9 5 6 10 7 2 4 9
42 42 43 41 44 40 33 19 6 5 14 3 5 12 12 11 7 1 3 8 5 5 4 5 3 6 15 16 11 5 3 7 6 15 15 14 14 11 6 10 7 1 5 8
42 41 40 38 36 33 29 9 5 2 7 5 7 4 14 6 4 7 15 5 8 9 16 11 5 11 8 11 4 9 11 6 8 9 10 5 12 12 10 8 8 4 5 15
41 40 39 37 31 26 20 5 4 2 5 6 9 6 8 6 6 6 8 10 10 7 6 10 9 9 14 12 23 12 9 8 3 3 12 20 12 8 16 13 4 6 3 5
41 41 40 34 30 23 12 5 7 8 9 14 10 7 5 9 6 7 2 14 8 13 9 6 3 7 3 3 11 9 9 5 3 7 9 21 18 13 12 9 9 6 8 7
40 41 42 36 27 18 7 7 8 7 6 4 2 5 11 9 10 6 14 23 11 9 6 10 1 8 10 5 5 3 6 6 5 5 2 7 10 10 5 7 4 3 7 2
41 42 40 37 28 16 14 13 9 4 8 4 5 7 13 7 8 14 7 15 12 11 3 10 30 26 15 17 21 6 7 7 5 5 7 1 8 2 5 10 4 8 9 5
42 42 39 35 27 20 17 16 8 5 6 9 7 9 8 5 3 3 12 9 8 11 8 8 9 9 5 11 10 15 6 8 6 6 4 8 4 5 3 6 6 1 4 8
43 41 36 31 27 22 19 17 19 10 4 12 3 3 6 4 2 7 4 16 9 7 9 7 5 6 5 3 11 5 8 13 8 4 7 11 9 3 4 6 8 7 6 3
46 44 33 25 24 21 19 14 19 16 10 17 4 6 5 7 5 6 3 11 6 5 5 6 4 5 2 3 4 4 7 7 7 2 4 10 8 5 7 8 11 5 8 15
48 39 32 23 22 21 20 13 24 26 10 30 25 23 21 16 7 8 12 9 4 8 7 5 6 5 8 1 5 5 7 8 3 4 6 5 8 7 9 9 3 5 7 6
37 39 30 21 21 21 22 13 21 23 19 18 22 31 35 33 19 8 9 8 8 11 8 1 6 4 3 6 4 3 0 11 9 11 10 7 3 4 11 12 16 10 8 6
36 37 36 22 22 23 24 23 27 15 18 38 40 37 8 11 10 15 9 5 9 9 8 15 5 4 8 7 9 6 2 8 7 6 6 9 14 17 18 15 15 14 9 7
35 35 37 28 22 26 28 24 23 18 8 7 13 6 9 9 17 18 11 22 19 16 10 7 5 4 13 7 6 7 8 13 11 2 8 6 18 22 25 26 11 8 8 7
37 37 35 29 22 25 26 24 28 22 8 6 17 17 3 22 26 23 23 17 17 13 6 5 6 7 7 3 4 3 12 13 9 11 31 27 38 27 27 27 21 14 8 7
38 39 30 23 20 21 14 8 26 30 20 6 7 7 8 17 31 21 18 20 15 8 7 7 6 6 4 6 5 10 16 21 24 12 41 39 31 29 28 28 27 20 13 9
37 33 20 16 17 27 22 7 17 37 23 6 10 12 7 17 37 26 24 17 11 9 8 7 9 7 6 6 7 15 12 14 16 20 44 25 39 33 26 15 19 22 17 12
29 17 10 8 14 23 21 13 25 31 19 7 3 8 6 22 12 11 14 9 9 5 5 8 7 10 4 2 18 21 20 23 26 30 41 38 38 32 29 25 26 26 17 11
9 3 12 15 12 13 13 15 11 16 15 6 6 6 7 14 10 12 11 8 2 3 3 7 12 2 6 16 23 33 35 36 40 37 29 32 30 30 32 36 32 27 23 20
2 1 3 2 8 12 16 14 10 13 16 11 8 6 4 10 9 5 10 5 5 4 8 12 5 8 38 35 35 33 40 38 40 42 35 30 31 35 36 28 26 27 24 20
5 4 2 2 14 13 9 8 8 11 5 14 18 17 5 7 6 7 5 6 3 4 9 9 4 8 18 41 45 43 39 38 41 44 36 37 33 35 35 30 27 25 24 23
6 6 5 8 8 7 5 6 2 7 11 12 20 36 17 7 5 10 4 2 2 8 5 5 5 9 26 21 24 47 45 39 43 42 35 38 41 37 34 31 32 33 27 23
5 3 2 4 6 2 9 11 6 5 8 15 20 6 22 9 7 12 5 3 7 2 3 7 10 18 15 18 19 42 43 39 42 37 32 34 34 31 28 27 28 28 28 30
5 5 4 5 6 8 8 6 1 7 11 17 22 19 10 10 7 7 7 7 5 5 4 11 7 27 28 27 32 42 47 49 47 43 40 38 33 27 23 23 24 28 29 25
8 7 7 11 19 15 8 16 16 10 12 9 8 12 10 4 8 7 8 6 9 11 10 9 24 33 26 39 43 44 43 49 48 45 45 41 35 33 26 21 23 25 23 20
8 10 7 17 9 16 17 16 13 9 11 2 5 6 8 9 9 10 15 13 13 8 9 21 17 19 32 45 48 43 42 45 45 45 45 43 40 38 27 21 27 27 27 23
7 12 28 32 23 17 17 12 11 14 8 1 1 4 15 0 8 9 9 12 8 16 18 19 17 16 24 47 49 43 40 45 45 44 45 47 45 41 34 35 37 35 31 24
Wind_Direction_850mb
339 340 342 345 345 355 353 352 19 42 153 100 31 192 196 252 307 72 49 109 114 124 4 17 44 355 228 341 33 5 343 118 332 185 302 119 126 98 148 123 219 177 204 275
338 339 339 344 346 353 2 341 290 248 224 164 287 295 279 232 219 359 83 19 39 50 50 90 358 347 333 43 44 340 323 26 356 358 349 355 52 345 50 94 79 158 156 290
334 336 336 340 341 346 347 335 360 334 187 201 146 347 272 232 155 90 82 47 81 59 28 10 74 3 350 358 55 34 91 41 120 171 235 205 62 354 19 107 82 200 266 338
327 331 332 333 334 339 338 299 279 346 301 318 330 162 269 219 127 69 73 25 77 115 67 21 13 355 349 350 8 31 83 87 53 134 91 82 89 66 33 63 58 94 322 61
323 325 327 329 328 327 316 288 339 348 301 294 341 331 315 199 150 132 88 123 123 105 119 147 285 5 2 272 337 44 5 143 111 50 39 91 71 20 62 53 26 80 104 28
320 322 322 323 322 317 287 258 277 282 273 301 61 257 265 239 127 26 154 152 114 98 167 192 299 170 97 111 150 84 70 109 79 214 224 243 28 347 42 95 14 268 70 254
319 320 319 317 314 296 265 264 279 248 262 234 216 293 320 220 235 143 158 140 121 177 166 110 107 94 62 56 49 67 125 93 78 205 3 149 236 359 31 94 55 103 118 154
320 318 313 309 306 291 257 246 240 240 261 251 272 304 325 323 326 85 162 156 120 175 173 64 52 350 24 355 13 12 19 114 80 119 83 297 314 234 142 97 290 295 137 194
319 317 307 302 300 288 260 241 232 225 259 231 309 294 309 278 210 342 113 133 124 120 76 71 117 193 196 326 343 93 48 68 112 109 139 192 240 204 112 136 291 262 322 156
316 317 304 296 292 282 262 237 227 206 247 270 301 238 259 287 171 167 224 158 151 112 70 80 141 229 188 180 169 347 6 9 101 89 147 283 262 171 128 118 236 319 268 328
313 315 307 287 279 271 260 223 214 219 253 266 266 269 281 310 216 151 166 93 5 53 75 126 201 157 220 107 211 169 171 129 169 90 68 265 166 109 159 209 26 351 14 1
322 323 312 286 265 258 256 215 213 207 242 268 266 261 255 261 276 226 141 153 147 158 94 141 122 143 121 167 239 37 233 178 175 161 213 256 192 220 125 112 91 66 32 34
321 319 319 291 257 248 248 222 197 232 260 284 271 256 188 226 201 184 135 137 149 153 141 151 158 135 137 161 236 174 230 161 113 91 235 225 169 155 151 136 104 81 43 349
317 314 313 297 260 243 243 239 203 208 226 270 269 251 247 174 179 199 188 158 138 147 152 119 136 158 186 201 189 157 189 141 144 272 286 241 202 176 163 157 136 111 87 42
314 311 306 293 261 237 240 238 206 197 225 278 294 291 42 190 180 160 149 153 168 175 148 95 218 179 135 48 82 274 184 172 152 210 199 188 192 188 178 177 172 166 135 123
314 309 296 281 243 220 221 227 213 201 203 291 319 313 217 156 171 176 163 158 169 193 182 191 193 155 138 106 189 260 253 230 227 210 199 202 184 168 182 185 182 165 156 139
315 309 290 270 226 197 186 186 181 185 190 245 299 305 194 171 168 159 157 171 178 192 184 194 165 152 153 106 182 218 200 193 210 207 180 163 180 191 189 206 175 173 172 192
317 306 275 229 198 194 206 127 148 165 178 232 240 269 317 167 152 136 169 177 183 200 186 153 161 136 82 237 237 195 173 171 169 178 187 200 195 195 205 202 187 187 200 207
337 95 125 122 154 165 173 185 205 214 221 267 195 182 221 168 146 148 154 163 59 270 164 222 146 8 206 223 203 198 203 198 195 184 191 186 197 199 203 197 197 202 209 219
237 128 319 189 155 148 147 163 171 186 211 235 232 231 239 171 160 103 125 114 182 160 245 137 143 243 235 226 218 228 212 207 200 183 179 181 183 183 182 195 211 223 227 231
225 287 298 59 149 147 183 195 183 190 229 213 229 217 167 165 127 166 141 176 138 125 258 144 258 273 241 250 235 220 209 208 203 204 211 210 212 191 193 199 207 215 223 229
218 286 309 147 190 194 180 203 206 182 212 204 193 214 207 139 124 95 43 156 61 218 151 103 266 255 240 220 219 203 198 201 200 205 212 211 210 209 212 224 228 234 229 219
230 235 303 332 181 65 201 196 235 212 219 190 171 168 169 127 95 71 76 95 222 94 108 221 225 235 225 198 210 189 191 198 201 208 209 200 195 200 215 231 231 225 210 202
218 182 302 216 227 245 201 183 238 318 322 328 205 155 147 132 89 140 119 230 46 280 231 231 235 234 219 196 188 187 193 199 204 205 201 204 212 219 231 238 240 224 217 217
209 186 231 215 241 268 261 311 309 313 327 327 143 174 151 131 118 189 129 181 217 207 223 226 238 233 218 196 191 197 203 204 207 212 213 213 218 224 227 237 222 208 214 213
228 226 249 253 280 281 269 275 272 269 321 190 194 135 143 211 176 155 201 179 195 220 218 252 267 236 223 205 198 200 205 213 220 220 221 224 226 228 233 226 202 206 212 200
225 242 239 255 275 268 268 271 259 322 302 313 72 194 214 166 187 208 172 179 203 219 226 267 266 251 235 204 200 202 209 221 226 227 227 232 236 226 218 214 209 208 213 218